San Antonio Stinson, TX

7:45 AM CDT on May 27, 2018 (GMT -0500)
Stinson Municipal

Weather History for KSSF - March, 2012

Change the Weather History Date:

Friday, March 23, 2012

  Actual Average Record
Temperature  
Mean Temperature 66 °F -  
Max Temperature 81 °F 69 °F 88 °F (2011)
Min Temperature 52 °F 50 °F 41 °F (2002)
Cooling Degree Days 1    
Growing Degree Days 16 (Base 50)    
Moisture  
Dew Point 52 °F    
Average Humidity 62    
Maximum Humidity 84    
Minimum Humidity 43    
Precipitation  
Precipitation 0.00 in - - ()
Sea Level Pressure  
Sea Level Pressure 29.97 in    
Wind  
Wind Speed 4 mph (ENE)    
Max Wind Speed 9 mph    
Max Gust Speed -    
Visibility 10 miles    
Events      
Averages and records for this station are not official NWS values.
T = Trace of Precipitation, MM = Missing Value Source: NWS Daily Summary

Daily Weather History Graph

Daily Weather History Graph

Search for Another Location

Airport or City:

Astronomy

Mar. 23, 2012 Rise Set
Actual Time 7:33 AM CDT 7:47 PM CDT
Civil Twilight 7:09 AM CDT 8:11 PM CDT
Nautical Twilight 6:42 AM CDT 8:38 PM CDT
Astronomical Twilight 6:14 AM CDT 9:06 PM CDT
Moon 7:51 AM CDT (3/23) 8:59 PM CDT (3/23)
Length of Visible Light 13h 01m
Length of Day
12h 13m
New Moon, 1% of the Moon is Illuminated
Mar 23
New Moon
Mar 30
First Quarter
Apr 6
Full
Apr 13
Last Quarter
Apr 21
New

Hourly Weather History & Observations

Time (CDT) Temp. Heat Index Dew Point Humidity Pressure Visibility Wind Dir Wind Speed Gust Speed Precip Events Conditions
12:53 AM 57.9 °F - 50.0 °F 75% 29.93 in 10.0 mi Calm Calm - N/A   Clear
1:53 AM 57.9 °F - 50.0 °F 75% 29.95 in 10.0 mi North 8.1 mph - N/A   Clear
2:53 AM 59.0 °F - 48.9 °F 69% 29.96 in 10.0 mi NE 3.5 mph - N/A   Clear
3:53 AM 57.0 °F - 48.9 °F 74% 29.96 in 10.0 mi NE 8.1 mph - N/A   Clear
4:53 AM 55.0 °F - 46.0 °F 72% 29.96 in 10.0 mi NNE 5.8 mph - N/A   Clear
5:53 AM 54.0 °F - 45.0 °F 72% 29.98 in 10.0 mi NNE 4.6 mph - N/A   Clear
6:53 AM 53.1 °F - 44.1 °F 71% 30.00 in 10.0 mi NNE 5.8 mph - N/A   Clear
7:53 AM 52.0 °F - 44.1 °F 74% 30.03 in 10.0 mi NNE 4.6 mph - N/A   Clear
9:53 AM 61.0 °F - 46.0 °F 58% 30.05 in 10.0 mi ENE 4.6 mph - N/A   Clear
10:53 AM 64.9 °F - 48.9 °F 56% 30.05 in 10.0 mi Variable 4.6 mph - N/A   Clear
11:53 AM 68.0 °F - 51.1 °F 55% 30.04 in 10.0 mi ENE 5.8 mph - N/A   Clear
12:53 PM 73.0 °F - 52.0 °F 48% 30.01 in 10.0 mi Variable 3.5 mph - N/A   Clear
1:53 PM 75.0 °F - 53.1 °F 46% 29.99 in 10.0 mi Calm Calm - N/A   Clear
2:53 PM 78.1 °F - 55.9 °F 46% 29.96 in 10.0 mi Calm Calm - N/A   Clear
3:53 PM 80.1 °F 80.2 °F 55.9 °F 43% 29.94 in 10.0 mi Calm Calm - N/A   Clear
4:53 PM 80.1 °F 80.2 °F 55.9 °F 43% 29.92 in 10.0 mi South 4.6 mph - N/A   Clear
5:53 PM 80.1 °F 80.2 °F 55.9 °F 43% 29.91 in 10.0 mi SSE 9.2 mph - N/A   Clear
6:53 PM 78.1 °F - 57.0 °F 48% 29.91 in 10.0 mi SSE 6.9 mph - N/A   Clear
7:53 PM 73.9 °F - 59.0 °F 59% 29.92 in 10.0 mi East 4.6 mph - N/A   Clear
8:53 PM 72.0 °F - 57.9 °F 61% 29.93 in 10.0 mi East 5.8 mph - N/A   Clear
9:53 PM 68.0 °F - 57.9 °F 70% 29.95 in 10.0 mi East 3.5 mph - N/A   Clear
10:53 PM 64.9 °F - 57.9 °F 78% 29.96 in 10.0 mi SE 5.8 mph - N/A   Clear
11:53 PM 64.0 °F - 59.0 °F 84% 29.96 in 10.0 mi ESE 3.5 mph - N/A   Clear